CHOMPTT (43855 NORAD) Tracking and Keplerian Element Data

This shows tracking and keplerian element data for the satellite.

Feedback or suggestion? Click here.




ElementValue
Catalog43855
NameCHOMPTT
Epoch Orbit2718
Epoch Day164.17609934
Epoch Year2019
RAAN60.0881
Inclination85.0384
Eccentricity0.0017383
Argument of Perigee344.54
Mean Anonmoly15.5311
Mean Motion15.22366162
Decay Rate5.87E-06
L11 43855U 18104G 19164.17609934 .00000587 00000-0 23563-4 0 9992
L22 43855 85.0384 60.0881 0017383 344.5400 15.5311 15.22366162 27188

Live tracking and technical data element details for CHOMPTT (NORAD 43855). CHOMPTT can be tracked NOW for your location showing map with azimuth and elevation plus other details from your city location.

Track the satellite on the map from your city or location and see movement details for azimuth, elevation, latitude, longitude, range, height, and movement on the map or in text.







IsCatalogInMostPopularTable: catalog: 43855, numindb: 102
Update: records affected: 1



GetName: 43855 CHOMPTT

Hit Count: updated at: Mon, 17 Jun 2019 04:52:16 GMT